EW0681 Weather Reports


Display with metric or nautical units.
time (UTC)temp
F
wind
direction
speed
MPH
gust
MPH
rain 1hr
in
rain 24hr
in
rain mn
in
humidity
%
barometer
mb
20201125131227 33 5 0.0 0.0 0.00 0.00 0.00 96 1019.9
20201125130704 33 5 0.0 0.0 0.00 0.00 0.00 95 1019.7
20201125125705 33 5 0.0 0.0 0.00 0.00 0.00 95 1019.6
20201125125216 33 5 0.0 0.0 0.00 0.00 0.00 95 1019.6
20201125124206 33 5 0.0 0.0 0.00 0.00 0.00 95 1019.3
20201125123705 33 5 0.0 0.0 0.00 0.00 0.00 95 1019.4
20201125123205 33 5 0.0 0.0 0.00 0.00 0.00 95 1019.3
20201125122707 34 5 0.0 0.0 0.00 0.00 0.00 95 1019.2
20201125122206 34 5 0.0 0.0 0.00 0.00 0.00 95 1019.2
20201125121711 34 5 0.0 0.0 0.00 0.00 0.00 95 1019.2
20201125121206 34 5 0.0 0.0 0.00 0.00 0.00 96 1019.2
20201125120708 34 5 0.0 0.0 0.00 0.00 0.00 96 1019.2
20201125120204 34 5 0.0 0.0 0.00 0.00 0.00 96 1019.2
20201125115705 34 5 0.0 0.0 0.00 0.00 0.00 96 1019.0
20201125115208 34 5 0.0 0.0 0.00 0.00 0.00 96 1019.0
20201125114707 34 5 0.0 0.0 0.00 0.00 0.00 95 1019.1
20201125114207 34 5 0.0 0.0 0.00 0.00 0.00 96 1019.1
20201125113705 34 5 0.0 0.0 0.00 0.00 0.00 96 1019.1
20201125113205 34 5 0.0 0.0 0.00 0.00 0.00 96 1019.1
20201125112704 34 9 0.0 0.0 0.00 0.00 0.00 95 1019.0
20201125112207 34 9 0.0 0.0 0.00 0.00 0.00 96 1019.1
20201125111705 34 236 0.0 0.0 0.00 0.00 0.00 96 1019.1
20201125111205 34 236 0.0 0.0 0.00 0.00 0.00 95 1018.9
20201125110705 33 236 0.0 0.0 0.00 0.00 0.00 95 1018.9
20201125110204 33 236 0.0 0.0 0.00 0.00 0.00 95 1018.8
20201125105705 33 236 0.0 0.0 0.00 0.00 0.00 95 1018.9
20201125105204 33 236 0.0 0.0 0.00 0.00 0.00 95 1018.9
20201125104706 34 236 0.0 0.0 0.00 0.00 0.00 95 1018.8
20201125104204 33 329 0.0 0.0 0.00 0.00 0.00 98 1018.8
20201125103705 33 328 0.0 0.0 0.00 0.00 0.00 98 1018.9
20201125103204 33 297 0.0 0.0 0.00 0.00 0.00 98 1018.7
20201125102706 33 296 0.0 0.0 0.00 0.00 0.00 98 1018.5
20201125102206 33 19 0.0 0.0 0.00 0.00 0.00 98 1018.7
20201125101713 33 19 0.0 0.0 0.00 0.00 0.00 98 1018.7
20201125101204 33 19 0.0 0.0 0.00 0.00 0.00 98 1018.5
20201125100704 33 19 0.0 0.0 0.00 0.00 0.00 98 1018.5
20201125100211 33 19 0.0 0.0 0.00 0.00 0.00 98 1018.5
20201125095707 33 317 0.0 0.0 0.00 0.00 0.00 98 1018.4
20201125095213 33 317 0.0 0.0 0.00 0.00 0.00 98 1018.4
20201125094704 33 315 0.0 0.0 0.00 0.00 0.00 98 1018.3
20201125094204 34 315 0.0 0.0 0.00 0.00 0.00 98 1018.2
20201125093704 34 315 0.0 0.0 0.00 0.00 0.00 98 1018.2
20201125093207 34 315 0.0 0.0 0.00 0.00 0.00 98 1018.2
20201125092710 34 179 0.0 0.0 0.00 0.00 0.00 98 1018.1
20201125092209 34 298 0.0 0.0 0.00 0.00 0.00 98 1018.1
20201125091707 34 298 0.0 0.0 0.00 0.00 0.00 98 1017.9
20201125091206 34 344 0.0 0.0 0.00 0.00 0.00 98 1017.9
20201125090704 34 327 0.0 0.0 0.00 0.00 0.00 98 1017.8
20201125090227 34 327 0.0 0.0 0.00 0.00 0.00 98 1017.9
20201125085737 34 329 0.0 0.0 0.00 0.00 0.00 98 1017.9
20201125085205 34 346 0.0 0.0 0.00 0.00 0.00 98 1017.9
20201125084205 33 288 0.0 0.0 0.00 0.00 0.00 98 1017.7
20201125083704 33 293 0.0 0.0 0.00 0.00 0.00 98 1017.8
20201125083204 33 306 0.0 0.0 0.00 0.00 0.00 98 1017.7
20201125082704 33 11 0.0 0.0 0.00 0.00 0.00 98 1017.7
20201125082206 33 17 0.0 0.0 0.00 0.00 0.00 98 1017.6
20201125081705 33 18 0.0 0.0 0.00 0.00 0.00 98 1017.5
20201125081205 33 30 0.0 0.0 0.00 0.00 0.00 98 1017.3
20201125080707 33 30 1.0 0.0 0.00 0.00 0.00 98 1017.2
20201125080210 33 83 1.0 0.0 0.00 0.00 0.00 98 1017.2
20201125075705 33 86 0.0 0.0 0.00 0.00 0.00 98 1017.1
20201125075204 33 28 0.0 0.0 0.00 0.00 0.00 98 1016.9
20201125074705 33 28 0.0 0.0 0.00 0.00 0.00 98 1016.9
20201125074204 33 16 0.0 0.0 0.00 0.00 0.00 98 1016.9
20201125073707 33 46 0.0 0.0 0.00 0.00 0.00 98 1016.8
20201125073206 33 124 0.0 0.0 0.00 0.00 0.00 98 1016.7
20201125072705 33 38 1.0 0.0 0.00 0.00 0.00 98 1016.5
20201125072208 33 348 1.0 0.0 0.00 0.00 0.00 98 1016.3
20201125071706 32 68 0.0 0.0 0.00 0.00 0.00 98 1016.1
20201125071204 32 95 0.0 0.0 0.00 0.00 0.00 98 1016.1
20201125070705 32 49 0.0 0.0 0.00 0.00 0.00 98 1016.1
20201125070207 32 40 0.0 0.0 0.00 0.00 0.00 98 1015.9
20201125065705 32 38 0.0 0.0 0.00 0.00 0.00 98 1015.8
20201125065207 32 80 0.0 0.0 0.00 0.00 0.00 98 1015.9
20201125064704 32 346 0.0 0.0 0.00 0.00 0.00 98 1016.0
20201125064204 32 78 0.0 0.0 0.00 0.00 0.00 98 1015.8
20201125063708 32 16 0.0 0.0 0.00 0.00 0.00 98 1015.9
20201125063205 32 17 0.0 0.0 0.00 0.00 0.00 98 1016.0
20201125062708 32 17 0.0 0.0 0.00 0.00 0.00 98 1016.0
20201125062210 32 28 0.0 0.0 0.00 0.00 0.00 98 1015.9
20201125061208 33 37 0.0 0.0 0.00 0.00 0.00 98 1015.9
20201125060706 32 36 0.0 0.0 0.00 0.00 0.00 98 1016.0
20201125060214 33 38 0.0 0.0 0.00 0.00 0.00 98 1015.9
20201125055704 33 48 1.0 0.0 0.00 0.00 0.00 98 1015.8
20201125055207 33 37 1.0 0.0 0.00 0.00 0.00 98 1016.0
20201125054705 32 67 1.0 0.0 0.00 0.00 0.00 98 1016.3
20201125054205 32 42 1.0 0.0 0.00 0.00 0.00 98 1016.3
20201125053704 32 29 1.0 0.0 0.00 0.00 0.00 98 1016.3
20201125053205 32 349 0.0 0.0 0.00 0.00 0.00 98 1016.4
20201125052705 32 124 0.0 0.0 0.00 0.00 0.00 98 1016.1
20201125052206 32 37 0.0 0.0 0.00 0.00 0.00 98 1016.1
20201125051712 32 26 0.0 0.0 0.00 0.00 0.00 98 1016.1
20201125051207 32 326 0.0 0.0 0.00 0.00 0.00 98 1016.1
20201125050706 33 243 0.0 0.0 0.00 0.00 0.00 95 1016.1
20201125050205 33 243 0.0 0.0 0.00 0.00 0.00 95 1016.3
20201125045709 33 242 0.0 0.0 0.00 0.00 0.00 95 1016.4
20201125045205 33 242 0.0 0.0 0.00 0.00 0.00 95 1016.6
20201125044707 33 242 0.0 0.0 0.00 0.00 0.00 95 1016.5
20201125044204 33 242 0.0 0.0 0.00 0.00 0.00 95 1016.6
20201125043204 33 204 0.0 0.0 0.00 0.00 0.00 95 1016.9
20201125042704 33 237 0.0 0.0 0.00 0.00 0.00 95 1017.0
20201125042207 33 215 0.0 0.0 0.00 0.00 0.00 95 1017.2
20201125041704 33 9 0.0 0.0 0.00 0.00 0.00 95 1017.2
20201125041208 33 9 0.0 0.0 0.00 0.00 0.00 95 1017.2
20201125040705 33 9 0.0 0.0 0.00 0.00 0.00 95 1017.1
20201125040204 33 9 0.0 0.0 0.00 0.00 0.00 95 1017.2
20201125035706 33 9 0.0 0.0 0.00 0.00 0.00 95 1016.8
20201125035205 33 9 0.0 0.0 0.00 0.00 0.00 95 1016.7
20201125034705 33 9 0.0 0.0 0.00 0.00 0.00 95 1016.7
20201125034204 33 9 0.0 0.0 0.00 0.00 0.00 95 1016.5
20201125033704 33 9 0.0 0.0 0.00 0.00 0.00 95 1016.5
20201125033205 33 9 0.0 0.0 0.00 0.00 0.00 95 1016.3
20201125032705 33 9 0.0 0.0 0.00 0.00 0.00 95 1016.1
20201125032204 33 9 0.0 0.0 0.00 0.00 0.00 95 1016.3
20201125031708 33 9 0.0 0.0 0.00 0.00 0.00 95 1016.3
20201125031205 33 9 0.0 0.0 0.00 0.00 0.00 95 1016.3
20201125030706 33 9 0.0 0.0 0.00 0.00 0.00 95 1016.3
20201125030204 33 9 0.0 0.0 0.00 0.00 0.00 95 1016.3
20201125025704 33 9 0.0 0.0 0.00 0.00 0.00 95 1015.9
20201125025210 33 9 0.0 0.0 0.00 0.00 0.00 95 1015.8
20201125024709 33 9 0.0 0.0 0.00 0.00 0.00 95 1015.8
20201125024206 33 9 0.0 0.0 0.00 0.00 0.00 95 1015.8
20201125023707 33 9 0.0 0.0 0.00 0.00 0.00 95 1016.1
20201125023208 33 9 0.0 0.0 0.00 0.00 0.00 95 1016.1
20201125022708 33 9 0.0 0.0 0.00 0.00 0.00 95 1016.1
20201125022205 33 9 0.0 0.0 0.00 0.00 0.00 95 1016.0
20201125021707 33 9 0.0 0.0 0.00 0.00 0.00 95 1016.0
20201125021205 33 9 0.0 0.0 0.00 0.00 0.00 95 1016.1
20201125020704 33 9 0.0 0.0 0.00 0.00 0.00 95 1016.3
20201125020206 33 9 0.0 0.0 0.00 0.00 0.00 95 1016.4
20201125015708 33 9 0.0 0.0 0.00 0.00 0.00 95 1016.5
20201125015206 33 9 0.0 0.0 0.00 0.00 0.00 95 1016.6
20201125014706 34 211 0.0 0.0 0.00 0.00 0.00 95 1016.5
20201125014206 34 211 0.0 0.0 0.00 0.00 0.00 95 1016.6
20201125013705 34 211 0.0 0.0 0.00 0.00 0.00 95 1016.6
20201125013207 34 211 0.0 0.0 0.00 0.00 0.00 95 1016.6
20201125012715 34 211 0.0 0.0 0.00 0.00 0.00 95 1016.7
20201125012205 34 211 0.0 0.0 0.00 0.00 0.00 95 1016.7
20201125011704 34 211 0.0 0.0 0.00 0.00 0.00 95 1016.6
20201125011218 34 211 0.0 0.0 0.00 0.00 0.00 95 1016.7
20201125010704 34 211 0.0 0.0 0.00 0.00 0.00 95 1016.7
20201125010205 34 211 0.0 0.0 0.00 0.00 0.00 95 1016.7
20201125005710 34 211 0.0 0.0 0.00 0.00 0.00 95 1016.8
20201125005204 35 211 0.0 0.0 0.00 0.00 0.00 95 1016.9
20201125004705 35 211 0.0 0.0 0.00 0.00 0.00 95 1017.0
20201125004205 35 350 0.0 0.0 0.00 0.00 0.00 95 1017.0
20201125003707 35 350 0.0 0.0 0.00 0.00 0.00 95 1017.1
20201125003205 35 350 0.0 0.0 0.00 0.00 0.00 95 1017.1
20201125002717 35 350 0.0 0.0 0.00 0.00 0.00 95 1017.0
20201125002204 35 350 0.0 0.0 0.00 0.00 0.00 95 1017.0
20201125001707 35 350 0.0 0.0 0.00 0.00 0.00 95 1017.1
20201125001209 35 350 0.0 0.0 0.00 0.00 0.00 95 1017.1
20201125000709 35 350 0.0 0.0 0.00 0.00 0.00 95 1017.2
20201125000210 35 350 0.0 0.0 0.00 0.00 0.00 95 1019.0
20201124235704 35 350 0.0 0.0 0.00 0.00 0.00 95 1017.3
20201124235204 35 350 0.0 0.0 0.00 0.00 0.00 94 1017.5
20201124234708 35 350 0.0 0.0 0.00 0.00 0.00 94 1017.5
20201124234206 35 350 0.0 0.0 0.00 0.00 0.00 95 1017.5
20201124233707 35 350 0.0 0.0 0.00 0.00 0.00 95 1017.6
20201124233205 35 350 0.0 0.0 0.00 0.00 0.00 95 1017.6
20201124232705 35 350 0.0 0.0 0.00 0.00 0.00 95 1017.6
20201124232205 35 350 0.0 0.0 0.00 0.00 0.00 94 1017.6
20201124231704 35 350 0.0 0.0 0.00 0.00 0.00 95 1017.5
20201124231205 35 350 0.0 0.0 0.00 0.00 0.00 95 1017.6
20201124230705 35 350 0.0 0.0 0.00 0.00 0.00 95 1017.6
20201124230207 35 342 0.0 0.0 0.00 0.00 0.00 95 1017.7
20201124225706 35 284 0.0 0.0 0.00 0.00 0.00 95 1017.8
20201124225209 35 284 0.0 0.0 0.00 0.00 0.00 95 1017.9
20201124224704 35 5 0.0 0.0 0.00 0.00 0.00 95 1018.0
20201124224206 35 5 0.0 0.0 0.00 0.00 0.00 95 1018.1
20201124223710 35 5 0.0 0.0 0.00 0.00 0.00 95 1018.3
20201124223206 35 5 0.0 0.0 0.00 0.00 0.00 95 1018.4
20201124222704 35 5 0.0 0.0 0.00 0.00 0.00 95 1018.5
20201124222208 35 5 0.0 0.0 0.00 0.00 0.00 95 1018.5
20201124221705 35 5 0.0 0.0 0.00 0.00 0.00 95 1018.7
20201124221205 35 5 0.0 0.0 0.00 0.00 0.00 95 1018.8
20201124220204 35 5 0.0 0.0 0.00 0.00 0.00 95 1018.9
20201124215704 35 5 0.0 0.0 0.00 0.00 0.00 95 1019.0
20201124215204 35 5 0.0 0.0 0.00 0.00 0.00 95 1019.0
20201124214705 34 5 0.0 0.0 0.00 0.00 0.00 95 1019.1
20201124214204 34 5 0.0 0.0 0.00 0.00 0.00 95 1019.1
20201124213705 34 5 0.0 0.0 0.00 0.00 0.00 95 1019.2
20201124213205 34 5 0.0 0.0 0.00 0.00 0.00 95 1019.2
20201124212706 34 5 0.0 0.0 0.00 0.00 0.00 95 1019.3
20201124212209 34 5 0.0 0.0 0.00 0.00 0.00 95 1019.2
20201124211704 34 5 0.0 0.0 0.00 0.00 0.00 95 1019.3
20201124211205 34 5 0.0 0.0 0.00 0.00 0.00 95 1019.4
20201124210707 34 5 0.0 0.0 0.00 0.00 0.00 95 1019.4
20201124210207 34 5 0.0 0.0 0.00 0.00 0.00 95 1019.4
20201124205705 34 5 0.0 0.0 0.00 0.00 0.00 95 1019.5
20201124205205 34 5 0.0 0.0 0.00 0.00 0.00 95 1019.5
20201124204705 34 252 0.0 0.0 0.00 0.00 0.00 95 1019.6
20201124204204 33 250 0.0 0.0 0.00 0.00 0.00 95 1019.6
20201124203707 33 250 0.0 0.0 0.00 0.00 0.00 95 1019.6
20201124203208 33 250 0.0 0.0 0.00 0.00 0.00 95 1019.7
20201124202710 33 23 0.0 0.0 0.00 0.00 0.00 95 1019.9
20201124202206 33 23 0.0 0.0 0.00 0.00 0.00 95 1020.0
20201124201704 33 23 0.0 0.0 0.00 0.00 0.00 95 1020.2
20201124201211 33 23 0.0 0.0 0.00 0.00 0.00 95 1020.3
20201124200707 33 23 0.0 0.0 0.00 0.00 0.00 95 1020.4
20201124200209 33 23 0.0 0.0 0.00 0.00 0.00 95 1020.4
20201124195705 33 23 0.0 0.0 0.00 0.00 0.00 95 1020.5
20201124195207 33 23 0.0 0.0 0.00 0.00 0.00 95 1020.6
20201124194705 33 23 0.0 0.0 0.00 0.00 0.00 95 1020.7
20201124194205 33 23 0.0 0.0 0.00 0.00 0.00 95 1020.8
20201124193705 33 23 0.0 0.0 0.00 0.00 0.00 95 1020.9
20201124193211 33 23 0.0 0.0 0.00 0.00 0.00 95 1020.9
20201124192705 33 23 0.0 0.0 0.00 0.00 0.00 95 1021.1
20201124192206 33 23 0.0 0.0 0.00 0.00 0.00 95 1021.2
20201124191738 33 211 0.0 0.0 0.00 0.00 0.00 95 1021.4
20201124191228 32 211 0.0 0.0 0.00 0.00 0.00 95 1021.4
20201124190705 32 211 0.0 0.0 0.00 0.00 0.00 95 1021.5
20201124190209 32 211 0.0 0.0 0.00 0.00 0.00 95 1021.6
20201124185705 32 211 0.0 0.0 0.00 0.00 0.00 95 1021.7
20201124185205 32 211 0.0 0.0 0.00 0.00 0.00 95 1021.8
20201124184707 32 211 0.0 0.0 0.00 0.00 0.00 95 1021.8
20201124184205 32 211 0.0 0.0 0.00 0.00 0.00 95 1021.9
20201124183704 32 211 0.0 0.0 0.00 0.00 0.00 95 1022.0
20201124183206 32 211 0.0 0.0 0.00 0.00 0.00 95 1022.0
20201124182705 32 211 0.0 0.0 0.00 0.00 0.00 95 1022.1
20201124182204 32 211 0.0 0.0 0.00 0.00 0.00 95 1022.3
20201124181704 32 211 0.0 0.0 0.00 0.00 0.00 95 1022.4
20201124181204 32 211 0.0 0.0 0.00 0.00 0.00 95 1022.5
20201124180707 32 211 0.0 0.0 0.00 0.00 0.00 95 1022.6
20201124180206 31 211 0.0 0.0 0.00 0.00 0.00 95 1022.6
20201124175704 31 211 0.0 0.0 0.00 0.00 0.00 95 1022.6
20201124175209 31 211 0.0 0.0 0.00 0.00 0.00 95 1022.7
20201124174704 31 211 0.0 0.0 0.00 0.00 0.00 95 1022.6
20201124174205 31 211 0.0 0.0 0.00 0.00 0.00 95 1022.7
20201124173706 31 211 0.0 0.0 0.00 0.00 0.00 95 1022.6
20201124173205 31 211 0.0 0.0 0.00 0.00 0.00 95 1022.5
20201124172705 31 211 0.0 0.0 0.00 0.00 0.00 95 1022.4
20201124172205 31 211 0.0 0.0 0.00 0.00 0.00 95 1022.3
20201124171707 31 211 0.0 0.0 0.00 0.00 0.00 95 1022.3
20201124171204 31 211 0.0 0.0 0.00 0.00 0.00 95 1022.5
20201124170705 31 211 0.0 0.0 0.00 0.00 0.00 95 1022.5
20201124170205 31 211 0.0 0.0 0.00 0.00 0.00 95 1022.5
20201124165704 31 211 0.0 0.0 0.00 0.00 0.00 95 1022.5
20201124165204 31 211 0.0 0.0 0.00 0.00 0.00 95 1022.7
20201124164704 31 211 0.0 0.0 0.00 0.00 0.00 95 1022.7
20201124164204 31 211 0.0 0.0 0.00 0.00 0.00 95 1022.7
20201124163704 31 211 0.0 0.0 0.00 0.00 0.00 95 1022.7
20201124163207 31 211 0.0 0.0 0.00 0.00 0.00 95 1022.6
20201124155705 30 0.0 0.0 0.00 0.00 0.00 97 1022.9
20201124155204 30 279 0.0 0.0 0.00 0.00 0.00 97 1022.9
20201124154706 30 279 0.0 0.0 0.00 0.00 0.00 97 1022.9
20201124154204 30 279 0.0 0.0 0.00 0.00 0.00 97 1022.7
20201124153706 30 330 0.0 0.0 0.00 0.00 0.00 97 1022.7
20201124153205 30 330 0.0 0.0 0.00 0.00 0.00 97 1022.7
20201124152708 30 330 0.0 0.0 0.00 0.00 0.00 97 1022.6
20201124152208 30 330 0.0 0.0 0.00 0.00 0.00 97 1022.6
20201124151708 30 330 0.0 0.0 0.00 0.00 0.00 97 1022.6
20201124151205 30 330 0.0 0.0 0.00 0.00 0.00 97 1022.6
20201124150709 30 330 0.0 0.0 0.00 0.00 0.00 97 1022.7
20201124150205 30 346 0.0 0.0 0.00 0.00 0.00 97 1022.7
20201124145207 30 350 0.0 0.0 0.00 0.00 0.00 97 1022.6
20201124144706 30 350 0.0 0.0 0.00 0.00 0.00 97 1022.6
20201124144204 30 350 0.0 0.0 0.00 0.00 0.00 98 1022.6
20201124143705 30 349 0.0 0.0 0.00 0.00 0.00 98 1022.6
20201124143205 30 211 0.0 0.0 0.00 0.00 0.00 95 1022.7
20201124142709 30 211 0.0 0.0 0.00 0.00 0.00 95 1022.7
20201124142204 30 211 0.0 0.0 0.00 0.00 0.00 95 1022.7
20201124141705 30 211 0.0 0.0 0.00 0.00 0.00 95 1022.9
20201124141212 30 211 0.0 0.0 0.00 0.00 0.00 95 1022.9
20201124140705 30 211 0.0 0.0 0.00 0.00 0.00 95 1022.8
20201124140214 30 211 0.0 0.0 0.00 0.00 0.00 95 1022.8
20201124135204 30 211 0.0 0.0 0.00 0.00 0.00 95 1022.9
20201124134705 30 211 0.0 0.0 0.00 0.00 0.00 95 1022.8
20201124134205 30 211 0.0 0.0 0.00 0.00 0.00 95 1022.9
20201124133706 30 211 0.0 0.0 0.00 0.00 0.00 95 1023.0
20201124133211 30 211 0.0 0.0 0.00 0.00 0.00 95 1022.9
20201124132705 30 211 0.0 0.0 0.00 0.00 0.00 95 1022.9
20201124132204 29 211 0.0 0.0 0.00 0.00 0.00 95 1022.9
20201124131706 30 211 0.0 0.0 0.00 0.00 0.00 95 1022.9